Location: Unspecified
(0.0000°N, 0.0000°E)
Time: 06:51:37
(UTC+00:00)

SR - Pass Details

Date: 16 December 2018
Orbit: 582 x 874 km, 66.7° (Epoch: 15 June)

Event Time Altitude Azimuth Distance (km) Brightness Sun altitude
Rises 23:00:02 0° 172° (S) 3,421 - -63.0°
Reaches altitude 10° 23:03:13 10° 154° (SSE) 2,506 - -63.4°
Maximum altitude 23:07:17 19° 110° (ESE) 1,937 - -63.8°
Drops below altitude 10° 23:11:20 10° 66° (ENE) 2,510 - -64.3°
Sets 23:14:29 0° 49° (NE) 3,429 - -64.6°
